Weather History for KAKO - July, 2013

Change the Weather History Date:

Thursday, July 4, 2013

  Actual Average Record
Temperature  
Mean Temperature 76 °F 73 °F  
Max Temperature 92 °F 88 °F 102 °F (1937)
Min Temperature 59 °F 59 °F 43 °F (1972)
Degree Days  
Heating Degree Days 0    
Month to date heating degree days 0  
Cooling Degree Days 11    
Month to date cooling degree days 21  
Growing Degree Days 25 (Base 50)    
Moisture  
Dew Point 43 °F    
Average Humidity 41    
Maximum Humidity 67    
Minimum Humidity 14    
Precipitation  
Precipitation 0.00 in 0.07 in 1.38 in (1996)
Month to date precipitation 0.34 0.28  
Year to date precipitation 5.43 8.92  
Sea Level Pressure  
Sea Level Pressure 29.77 in    
Wind  
Wind Speed 11 mph (SSW)    
Max Wind Speed 18 mph    
Max Gust Speed 26 mph    
Visibility 10 miles    
Events      
T = Trace of Precipitation, MM = Missing Value Source: NWS Daily Summary

Daily Weather History Graph

Daily Weather History Graph

Search for Another Location

Airport or City:

Trip Planner

Search our weather history database for the weather conditions in past years. The results will help you decide how hot, cold, wet, or windy it might be!

Date:

Astronomy

Jul. 04, 2013 Rise Set
Actual Time 5:28 AM MDT 8:25 PM MDT
Civil Twilight 4:56 AM MDT 8:58 PM MDT
Nautical Twilight 4:14 AM MDT 9:39 PM MDT
Astronomical Twilight 3:26 AM MDT 10:27 PM MDT
Moon 2:47 AM MDT (7/4) 5:31 PM MDT (7/4)
Length of Visible Light 16h 01m
Length of Day
14h 56m
Waning Crescent, 11% of the Moon is Illuminated
Jul 4
Waning Crescent
Jul 8
New
Jul 15
First Quarter
Jul 22
Full
Jul 29
Last Quarter

Hourly Weather History & Observations

Time (MDT) Temp. Dew Point Humidity Pressure Visibility Wind Dir Wind Speed Gust Speed Precip Events Conditions
12:53 AM 66.9 °F 46.9 °F 49% 29.80 in 10.0 mi SSW 15.0 mph 25.3 mph N/A   Clear
1:53 AM 66.9 °F 46.9 °F 49% 29.78 in 10.0 mi South 16.1 mph 25.3 mph N/A   Clear
2:53 AM 66.0 °F 48.0 °F 52% 29.78 in 10.0 mi SSW 12.7 mph 25.3 mph N/A   Clear
3:53 AM 63.0 °F 48.9 °F 60% 29.78 in 10.0 mi SSW 10.4 mph - N/A   Clear
4:53 AM 61.0 °F 48.9 °F 64% 29.79 in 10.0 mi SSW 12.7 mph 24.2 mph N/A   Clear
5:53 AM 59.0 °F 48.9 °F 69% 29.80 in 10.0 mi SSW 11.5 mph - N/A   Clear
6:53 AM 64.9 °F 50.0 °F 58% 29.79 in 10.0 mi SW 9.2 mph - N/A   Clear
7:53 AM 69.1 °F 48.9 °F 49% 29.81 in 10.0 mi West 11.5 mph - N/A   Clear
8:53 AM 73.9 °F 48.9 °F 41% 29.81 in 10.0 mi West 8.1 mph - N/A   Clear
9:53 AM 80.1 °F 46.9 °F 31% 29.81 in 10.0 mi Calm Calm - N/A   Clear
10:53 AM 82.9 °F 45.0 °F 26% 29.79 in 10.0 mi SSW 9.2 mph - N/A   Clear
11:53 AM 87.1 °F 42.1 °F 21% 29.78 in 10.0 mi SSW 11.5 mph - N/A   Clear
12:53 PM 90.0 °F 34.0 °F 14% 29.75 in 10.0 mi North 8.1 mph 18.4 mph N/A   Clear
1:53 PM 90.0 °F 34.0 °F 14% 29.74 in 10.0 mi NW 11.5 mph 18.4 mph N/A   Clear
2:53 PM 90.0 °F 36.0 °F 15% 29.75 in 10.0 mi NE 8.1 mph 16.1 mph N/A   Clear
3:53 PM 91.0 °F 36.0 °F 14% 29.73 in 10.0 mi Calm Calm - N/A   Clear
4:53 PM 91.0 °F 35.1 °F 14% 29.72 in 10.0 mi NNW 9.2 mph - N/A   Clear
5:53 PM 90.0 °F 35.1 °F 14% 29.73 in 10.0 mi NNE 12.7 mph 17.3 mph N/A   Clear
6:53 PM 89.1 °F 34.0 °F 14% 29.72 in 10.0 mi ENE 10.4 mph - N/A   Clear
7:53 PM 81.0 °F 42.1 °F 25% 29.74 in 10.0 mi NE 3.5 mph - N/A   Clear
8:53 PM 78.1 °F 45.0 °F 31% 29.75 in 10.0 mi NE 6.9 mph - N/A   Clear
9:53 PM 73.9 °F 43.0 °F 33% 29.76 in 10.0 mi SE 9.2 mph - N/A   Clear
10:53 PM 71.1 °F 43.0 °F 36% 29.77 in 10.0 mi SSE 10.4 mph - N/A   Clear
11:53 PM 71.1 °F 43.0 °F 36% 29.74 in 10.0 mi South 13.8 mph 24.2 mph N/A   Clear